Terug naar catalogus

STARLINK-30889

ActiefCommunicatieVLEO
NORAD 58368·PAYLOAD·🇺🇸 United States

Gelanceerd Nov 18, 2023 vanaf Cape Canaveral Space Force Station

Loading…

Volgende Passages (komende 24 uur)

TLE

VersSource: CelesTrak SupGP

Epoch: Sep 15, 2026, 02:49 UTC

1 58368C 23177T   26258.11784722  .00030079  00000+0  10894-2 0  2585
2 58368  43.0016   0.9955 0001589 263.2496 177.3052 15.27565645    11

Volg STARLINK-30889 in realtime met AllMySat

Download on the App Store